This demonstration page uses our WeatherBlox Daily Observations layout. Learn more.

Left ArrowRight Arrow

38.20091, -84.87328

Hourly Observations for July 18, 2019

Temp ( °F °C ) Dew Point ( °F °C ) Humidity (%) Winds ( mph kmh ) Pressure ( in mb ) Visibility ( mi km ) Precip ( " mm )
12:26 am 00:26 Mostly Cloudy with Light Rain 75 23.9 73 22.8 94 94 WNW 12 19 29.97 1015 2 2 0.17 4.32
12:29 am 00:29 Mostly Cloudy with Heavy Rain 75 23.9 72 22.2 90 90 VRB 7 11 29.97 1015 1 1 0.33 8.38
12:39 am 00:39 Mostly Cloudy with Heavy Rain 75 23.9 71 21.7 88 88 SW 12 19 29.95 1014 1 2 0.46 11.68
12:42 am 00:42 Mostly Cloudy with Heavy Rain 75 23.9 71 21.7 88 88 SW 13 20 29.95 1014 3 5 0.47 11.94
12:53 am 00:53 Mostly Cloudy with Light Rain 75 23.9 71 21.7 88 88 SW 8 13 29.95 1014 10 16 0.47 11.94
1:53 am 01:53 Partly Cloudy 75 23.9 72 22.2 90 90 S 6 9 29.94 1014 10 16 0.00 0.03
2:53 am 02:53 Clear 75 23.9 73 22.8 94 94 SSE 3 6 29.93 1014 9 14 0.00 0.00
3:53 am 03:53 Clear 74 23.3 72 22.2 94 94 Calm 29.92 1013 7 11 0.00 0.00
4:53 am 04:53 Clear 73 22.8 72 22.2 96 96 S 3 6 29.91 1013 8 13 0.00 0.00
5:53 am 05:53 Clear 73 22.8 71 21.7 94 94 S 3 6 29.93 1014 9 14 0.00 0.00
6:53 am 06:53 Sunny 74 23.3 72 22.2 94 94 SW 5 7 29.95 1014 7 11 0.00 0.00
7:51 am 07:51 Partly Cloudy 75 24 73 23 94 94 SW 8 13 29.96 1015 8 13 0.00 0.00
7:53 am 07:53 Partly Cloudy 76 24.4 74 23.3 94 94 SW 8 13 29.96 1015 8 13 0.00 0.00
8:07 am 08:07 Mostly Cloudy 77 25 75 23.9 94 94 SW 9 15 29.96 1014 7 11 0.00 0.00
8:53 am 08:53 Cloudy 77 25 75 23.9 94 94 SW 12 19 29.97 1015 7 11 0.00 0.00
9:34 am 09:34 Mostly Cloudy 79 26.1 75 23.9 88 88 VRB 6 9 29.97 1015 9 14 0.00 0.00
9:53 am 09:53 Mostly Cloudy 79 26.1 74 23.3 85 85 WSW 7 11 29.98 1015 10 16 0.00 0.00
10:53 am 10:53 Cloudy 80 26.7 74 23.3 82 82 W 7 11 29.98 1015 10 16 0.00 0.00
11:53 am 11:53 Cloudy 82 27.8 74 23.3 77 77 WSW 7 11 29.98 1015 10 16 0.00 0.00
12:53 pm 12:53 Cloudy 85 29.4 74 23.3 70 70 SW 7 11 29.98 1015 10 16 0.00 0.00
1:49 pm 13:49 Partly Cloudy 86 30 73 23 66 66 W 7 11 29.96 1015 10 16 0.00 0.00
1:53 pm 13:53 Partly Cloudy 86 30 74 23.3 67 67 W 7 11 29.98 1015 10 16 0.00 0.00
2:42 pm 14:42 Mostly Cloudy 86 30 74 23.3 67 67 VRB 6 9 29.95 1014 10 16 0.00 0.00
2:53 pm 14:53 Mostly Cloudy 86 30 74 23.3 67 67 SW 8 13 29.96 1015 10 16 0.00 0.00
3:09 pm 15:09 Partly Cloudy 88 31.1 75 23.9 66 66 VRB 3 6 29.93 1014 10 16 0.00 0.00
3:53 pm 15:53 Mostly Sunny 90 32.2 74 23.3 59 59 WNW 5 7 29.93 1014 10 16 0.00 0.00
4:53 pm 16:53 Mostly Sunny 90 32.2 74 23.3 59 59 W 8 13 29.93 1013 10 16 0.00 0.00
5:53 pm 17:53 Sunny 91 32.8 73 22.8 56 56 NNW 5 7 29.92 1013 10 16 0.00 0.00
6:53 pm 18:53 Sunny 90 32.2 72 22.2 56 56 Calm 29.92 1013 10 16 0.00 0.00
7:53 pm 19:53 Sunny 88 31.1 73 22.8 61 61 SW 6 9 29.91 1013 10 16 0.00 0.00
8:53 pm 20:53 Sunny 84 28.9 73 22.8 70 70 SE 7 11 29.92 1013 10 16 0.00 0.00
9:53 pm 21:53 Clear 81 27.2 73 22.8 77 77 S 3 6 29.92 1013 10 16 0.00 0.00
10:53 pm 22:53 Clear 81 27.2 74 23.3 79 79 SSW 8 13 29.93 1013 10 16 0.00 0.00
11:53 pm 23:53 Clear 80 26.7 75 23.9 85 85 SW 7 11 29.93 1014 10 16 0.00 0.00

Powered by AerisWeather